Time,TemperatureF,DewpointF,PressureIn,WindDirection,WindDirectionDegrees,WindSpeedMPH,WindSpeedGustMPH,Humidity,HourlyPrecipIn,Conditions,Clouds,dailyrainin,SoftwareType,DateUTC
2013-04-11 00:02:00,47.4,45.3,29.86,NW,312,0.3,2.0,92,0.01,n/a,n/a,-99.99,Henriksen +1-Wire,2013-04-11 04:02:00,
2013-04-11 00:03:00,47.4,45.3,29.86,NW,318,0.3,1.6,92,0.02,n/a,n/a,-99.99,Henriksen +1-Wire,2013-04-11 04:03:00,
2013-04-11 00:06:00,47.3,45.3,29.86,NW,309,0.1,1.6,92,0.02,n/a,n/a,-99.99,Henriksen +1-Wire,2013-04-11 04:06:00,
2013-04-11 00:12:00,47.3,45.3,29.84,NNW,340,0.9,3.4,92,0.03,n/a,n/a,-99.99,Henriksen +1-Wire,2013-04-11 04:12:00,
2013-04-11 00:16:00,47.2,45.3,29.82,WNW,292,1.4,3.4,93,0.03,n/a,n/a,-99.99,Henriksen +1-Wire,2013-04-11 04:16:00,
2013-04-11 00:22:00,47.0,45.1,29.84,WNW,297,1.6,3.5,93,0.03,n/a,n/a,-99.99,Henriksen +1-Wire,2013-04-11 04:22:00,
2013-04-11 00:28:00,46.9,45.1,29.85,NW,310,1.6,4.5,93,0.03,n/a,n/a,-99.99,Henriksen +1-Wire,2013-04-11 04:28:00,
2013-04-11 00:34:00,46.9,45.1,29.84,NW,307,0.4,3.7,93,0.04,n/a,n/a,-99.99,Henriksen +1-Wire,2013-04-11 04:34:00,
2013-04-11 00:40:00,46.9,45.1,29.85,NNW,332,1.5,2.5,93,0.04,n/a,n/a,-99.99,Henriksen +1-Wire,2013-04-11 04:40:00,
2013-04-11 00:46:00,46.8,45.0,29.84,NNW,327,0.4,2.5,93,0.04,n/a,n/a,-99.99,Henriksen +1-Wire,2013-04-11 04:46:00,
2013-04-11 00:52:00,46.8,45.0,29.85,NNW,339,1.0,4.5,93,0.04,n/a,n/a,-99.99,Henriksen +1-Wire,2013-04-11 04:52:00,
2013-04-11 00:58:00,46.8,45.0,29.85,NNW,332,2.0,4.5,93,0.03,n/a,n/a,-99.99,Henriksen +1-Wire,2013-04-11 04:58:00,
2013-04-11 01:04:00,46.8,45.0,29.84,WNW,289,1.0,3.8,93,0.02,n/a,n/a,-99.99,Henriksen +1-Wire,2013-04-11 05:04:00,
2013-04-11 01:10:00,46.8,45.1,29.84,NNW,327,0.8,2.6,93,0.03,n/a,n/a,-99.99,Henriksen +1-Wire,2013-04-11 05:10:00,
2013-04-11 01:16:00,46.8,45.0,29.84,WNW,299,0.7,2.8,93,0.03,n/a,n/a,-99.99,Henriksen +1-Wire,2013-04-11 05:16:00,
2013-04-11 01:22:00,46.7,44.9,29.84,NW,319,0.8,2.8,93,0.03,n/a,n/a,-99.99,Henriksen +1-Wire,2013-04-11 05:22:00,
2013-04-11 01:28:00,46.6,44.9,29.84,NW,317,1.6,2.9,93,0.03,n/a,n/a,-99.99,Henriksen +1-Wire,2013-04-11 05:28:00,
2013-04-11 01:34:00,46.6,44.9,29.84,NNW,329,0.7,2.9,93,0.02,n/a,n/a,-99.99,Henriksen +1-Wire,2013-04-11 05:34:00,
2013-04-11 01:40:00,46.6,45.0,29.83,NNW,329,1.5,3.8,93,0.03,n/a,n/a,-99.99,Henriksen +1-Wire,2013-04-11 05:40:00,
2013-04-11 01:46:00,46.5,44.9,29.83,NW,322,1.9,3.8,93,0.03,n/a,n/a,-99.99,Henriksen +1-Wire,2013-04-11 05:46:00,
2013-04-11 01:52:00,46.5,44.8,29.82,NW,320,1.8,3.5,93,0.04,n/a,n/a,-99.99,Henriksen +1-Wire,2013-04-11 05:52:00,
2013-04-11 01:58:00,46.4,44.8,29.82,NNW,328,2.5,3.5,94,0.04,n/a,n/a,-99.99,Henriksen +1-Wire,2013-04-11 05:58:00,
2013-04-11 02:04:00,46.4,44.8,29.82,NW,325,1.1,3.7,94,0.04,n/a,n/a,-99.99,Henriksen +1-Wire,2013-04-11 06:04:00,
2013-04-11 02:10:00,46.4,44.9,29.81,NNW,328,0.3,3.2,94,0.03,n/a,n/a,-99.99,Henriksen +1-Wire,2013-04-11 06:10:00,
2013-04-11 02:16:00,46.5,44.9,29.80,NW,320,1.4,3.0,94,0.02,n/a,n/a,-99.99,Henriksen +1-Wire,2013-04-11 06:16:00,
2013-04-11 02:22:00,46.5,44.8,29.80,WNW,301,1.1,3.0,94,0.02,n/a,n/a,-99.99,Henriksen +1-Wire,2013-04-11 06:22:00,
2013-04-11 02:28:00,46.4,44.7,29.79,NW,316,1.1,3.0,93,0.02,n/a,n/a,-99.99,Henriksen +1-Wire,2013-04-11 06:28:00,
2013-04-11 02:34:00,46.3,44.7,29.79,NE,50,0.6,3.0,94,0.02,n/a,n/a,-99.99,Henriksen +1-Wire,2013-04-11 06:34:00,
2013-04-11 02:40:00,46.4,44.8,29.79,NNE,21,0.5,1.6,94,0.01,n/a,n/a,-99.99,Henriksen +1-Wire,2013-04-11 06:40:00,
2013-04-11 02:46:00,46.3,44.6,29.79,NNW,331,0.1,1.5,94,0.01,n/a,n/a,-99.99,Henriksen +1-Wire,2013-04-11 06:46:00,
2013-04-11 02:52:00,46.2,44.6,29.79,NNW,327,0.0,0.6,93,0.00,n/a,n/a,-99.99,Henriksen +1-Wire,2013-04-11 06:52:00,
2013-04-11 02:58:00,46.2,44.6,29.80,NW,321,1.2,2.6,94,0.00,n/a,n/a,-99.99,Henriksen +1-Wire,2013-04-11 06:58:00,
2013-04-11 03:04:00,46.2,44.6,29.80,NW,320,1.8,3.1,94,0.00,n/a,n/a,-99.99,Henriksen +1-Wire,2013-04-11 07:04:00,
2013-04-11 03:10:00,46.2,44.6,29.80,NW,325,2.6,5.0,94,0.00,n/a,n/a,-99.99,Henriksen +1-Wire,2013-04-11 07:10:00,
2013-04-11 03:16:00,46.1,44.5,29.80,NW,323,2.5,5.0,94,0.00,n/a,n/a,-99.99,Henriksen +1-Wire,2013-04-11 07:16:00,
2013-04-11 03:22:00,45.9,44.4,29.80,NNW,338,1.6,4.3,94,0.00,n/a,n/a,-99.99,Henriksen +1-Wire,2013-04-11 07:22:00,
2013-04-11 03:28:00,45.9,44.3,29.80,NNW,333,1.6,3.8,94,0.00,n/a,n/a,-99.99,Henriksen +1-Wire,2013-04-11 07:28:00,
2013-04-11 03:34:00,45.9,44.4,29.80,WNW,291,0.2,3.5,94,0.00,n/a,n/a,-99.99,Henriksen +1-Wire,2013-04-11 07:34:00,
2013-04-11 03:40:00,45.9,44.3,29.81,West,262,0.7,1.3,94,0.00,n/a,n/a,-99.99,Henriksen +1-Wire,2013-04-11 07:40:00,
2013-04-11 03:46:00,45.8,44.3,29.81,NNW,339,1.3,2.6,94,0.00,n/a,n/a,-99.99,Henriksen +1-Wire,2013-04-11 07:46:00,
2013-04-11 03:52:00,45.8,44.3,29.80,NNW,330,2.5,3.6,94,0.00,n/a,n/a,-99.99,Henriksen +1-Wire,2013-04-11 07:52:00,
2013-04-11 03:58:00,45.9,44.4,29.80,NNW,327,2.8,4.1,94,0.00,n/a,n/a,-99.99,Henriksen +1-Wire,2013-04-11 07:58:00,
2013-04-11 04:04:00,45.8,44.4,29.81,NW,324,2.2,4.5,94,0.00,n/a,n/a,-99.99,Henriksen +1-Wire,2013-04-11 08:04:00,
2013-04-11 04:10:00,45.8,44.4,29.82,NW,322,2.6,4.8,94,0.00,n/a,n/a,-99.99,Henriksen +1-Wire,2013-04-11 08:10:00,
2013-04-11 04:16:00,45.9,44.4,29.80,NW,322,2.7,5.1,94,0.00,n/a,n/a,-99.99,Henriksen +1-Wire,2013-04-11 08:16:00,
2013-04-11 04:22:00,45.9,44.4,29.80,NW,313,1.2,5.0,94,0.00,n/a,n/a,-99.99,Henriksen +1-Wire,2013-04-11 08:22:00,
2013-04-11 04:28:00,45.9,44.5,29.80,NW,324,0.8,2.9,94,0.01,n/a,n/a,-99.99,Henriksen +1-Wire,2013-04-11 08:28:00,
2013-04-11 04:34:00,45.9,44.4,29.80,NW,315,0.8,4.8,94,0.01,n/a,n/a,-99.99,Henriksen +1-Wire,2013-04-11 08:34:00,
2013-04-11 04:40:00,45.9,44.4,29.80,NW,323,1.0,2.5,94,0.01,n/a,n/a,-99.99,Henriksen +1-Wire,2013-04-11 08:40:00,
2013-04-11 04:46:00,45.8,44.3,29.81,NNW,337,1.2,4.0,94,0.01,n/a,n/a,-99.99,Henriksen +1-Wire,2013-04-11 08:46:00,
2013-04-11 04:52:00,45.9,44.4,29.81,WNW,298,0.1,4.0,94,0.01,n/a,n/a,-99.99,Henriksen +1-Wire,2013-04-11 08:52:00,
2013-04-11 04:58:00,45.8,44.4,29.82,NW,307,1.9,3.5,94,0.01,n/a,n/a,-99.99,Henriksen +1-Wire,2013-04-11 08:58:00,
2013-04-11 05:04:00,45.8,44.3,29.81,NNW,331,1.5,3.5,94,0.01,n/a,n/a,-99.99,Henriksen +1-Wire,2013-04-11 09:04:00,
2013-04-11 05:10:00,45.7,44.3,29.81,NW,326,1.2,5.5,94,0.01,n/a,n/a,-99.99,Henriksen +1-Wire,2013-04-11 09:10:00,
2013-04-11 05:16:00,45.8,44.3,29.82,NW,321,2.5,6.6,94,0.01,n/a,n/a,-99.99,Henriksen +1-Wire,2013-04-11 09:16:00,
2013-04-11 05:22:00,45.9,44.4,29.82,NNW,333,4.7,9.5,94,0.01,n/a,n/a,-99.99,Henriksen +1-Wire,2013-04-11 09:22:00,
2013-04-11 05:28:00,45.9,44.3,29.82,NNW,327,4.0,9.5,94,0.00,n/a,n/a,-99.99,Henriksen +1-Wire,2013-04-11 09:28:00,
2013-04-11 05:34:00,45.8,44.2,29.84,NW,325,4.4,8.7,94,0.00,n/a,n/a,-99.99,Henriksen +1-Wire,2013-04-11 09:34:00,
2013-04-11 05:40:00,45.7,44.1,29.84,NW,320,5.1,8.7,93,0.00,n/a,n/a,-99.99,Henriksen +1-Wire,2013-04-11 09:40:00,
2013-04-11 05:46:00,45.6,43.9,29.84,NW,314,4.0,8.7,93,0.00,n/a,n/a,-99.99,Henriksen +1-Wire,2013-04-11 09:46:00,
2013-04-11 05:52:00,45.6,43.8,29.84,NNW,327,4.5,8.0,93,0.00,n/a,n/a,-99.99,Henriksen +1-Wire,2013-04-11 09:52:00,
2013-04-11 05:58:00,45.4,43.7,29.84,NNW,328,4.2,8.5,93,0.00,n/a,n/a,-99.99,Henriksen +1-Wire,2013-04-11 09:58:00,
2013-04-11 06:04:00,45.4,43.7,29.84,NW,325,5.1,9.0,93,0.00,n/a,n/a,-99.99,Henriksen +1-Wire,2013-04-11 10:04:00,
2013-04-11 06:10:00,45.3,43.6,29.85,NW,321,4.2,9.0,93,0.00,n/a,n/a,-99.99,Henriksen +1-Wire,2013-04-11 10:10:00,
2013-04-11 06:16:00,45.2,43.5,29.85,NW,320,3.0,8.3,93,0.00,n/a,n/a,-99.99,Henriksen +1-Wire,2013-04-11 10:16:00,
2013-04-11 06:22:00,45.1,43.4,29.86,NW,313,3.3,7.1,93,0.00,n/a,n/a,-99.99,Henriksen +1-Wire,2013-04-11 10:22:00,
2013-04-11 06:28:00,45.0,43.2,29.87,NW,321,4.1,9.7,93,0.00,n/a,n/a,-99.99,Henriksen +1-Wire,2013-04-11 10:28:00,
2013-04-11 06:34:00,45.0,43.2,29.88,NNW,332,4.7,8.8,93,0.00,n/a,n/a,-99.99,Henriksen +1-Wire,2013-04-11 10:34:00,
2013-04-11 06:40:00,44.9,43.1,29.88,NNW,328,3.6,8.8,93,0.00,n/a,n/a,-99.99,Henriksen +1-Wire,2013-04-11 10:40:00,
2013-04-11 06:46:00,44.9,43.1,29.88,NW,322,3.3,7.5,93,0.00,n/a,n/a,-99.99,Henriksen +1-Wire,2013-04-11 10:46:00,
2013-04-11 06:52:00,44.9,43.0,29.88,NW,312,2.6,8.4,92,0.00,n/a,n/a,-99.99,Henriksen +1-Wire,2013-04-11 10:52:00,
2013-04-11 06:58:00,44.9,43.0,29.88,NW,326,2.5,8.4,92,0.00,n/a,n/a,-99.99,Henriksen +1-Wire,2013-04-11 10:58:00,
2013-04-11 07:04:00,44.9,42.9,29.89,NW,326,2.6,6.4,92,0.00,n/a,n/a,-99.99,Henriksen +1-Wire,2013-04-11 11:04:00,
2013-04-11 07:10:00,45.0,43.0,29.89,NW,325,2.2,4.5,92,0.00,n/a,n/a,-99.99,Henriksen +1-Wire,2013-04-11 11:10:00,
2013-04-11 07:16:00,45.0,43.0,29.89,NNW,336,2.3,4.1,92,0.00,n/a,n/a,-99.99,Henriksen +1-Wire,2013-04-11 11:16:00,
2013-04-11 07:22:00,45.0,43.1,29.90,NNW,329,2.2,5.0,92,0.00,n/a,n/a,-99.99,Henriksen +1-Wire,2013-04-11 11:22:00,
2013-04-11 07:28:00,45.0,43.2,29.90,NNW,330,2.6,5.0,93,0.00,n/a,n/a,-99.99,Henriksen +1-Wire,2013-04-11 11:28:00,
2013-04-11 07:34:00,45.0,43.2,29.90,NNW,333,2.2,4.9,93,0.00,n/a,n/a,-99.99,Henriksen +1-Wire,2013-04-11 11:34:00,
2013-04-11 07:40:00,45.1,43.3,29.90,NW,320,0.8,4.9,93,0.00,n/a,n/a,-99.99,Henriksen +1-Wire,2013-04-11 11:40:00,
2013-04-11 07:46:00,45.2,43.3,29.91,NW,305,1.8,3.9,93,0.00,n/a,n/a,-99.99,Henriksen +1-Wire,2013-04-11 11:46:00,
2013-04-11 07:52:00,45.1,43.3,29.90,NW,326,2.0,4.1,93,0.00,n/a,n/a,-99.99,Henriksen +1-Wire,2013-04-11 11:52:00,
2013-04-11 07:58:00,45.1,43.2,29.90,NNW,328,2.2,5.5,93,0.00,n/a,n/a,-99.99,Henriksen +1-Wire,2013-04-11 11:58:00,
2013-04-11 08:04:00,45.1,43.2,29.91,NW,310,3.0,6.0,93,0.00,n/a,n/a,-99.99,Henriksen +1-Wire,2013-04-11 12:04:00,
2013-04-11 08:10:00,45.1,43.2,29.91,NW,323,1.3,6.0,93,0.00,n/a,n/a,-99.99,Henriksen +1-Wire,2013-04-11 12:10:00,
2013-04-11 08:16:00,45.1,43.2,29.91,NW,319,1.5,3.5,93,0.00,n/a,n/a,-99.99,Henriksen +1-Wire,2013-04-11 12:16:00,
2013-04-11 08:22:00,44.9,43.0,29.91,NW,321,1.3,4.5,93,0.00,n/a,n/a,-99.99,Henriksen +1-Wire,2013-04-11 12:22:00,
2013-04-11 08:28:00,44.8,42.9,29.91,NNW,333,1.7,3.5,93,0.00,n/a,n/a,-99.99,Henriksen +1-Wire,2013-04-11 12:28:00,
2013-04-11 08:34:00,44.7,42.8,29.91,NNW,330,1.2,2.9,93,0.00,n/a,n/a,-99.99,Henriksen +1-Wire,2013-04-11 12:34:00,
2013-04-11 08:40:00,44.7,42.8,29.90,NNW,330,2.4,3.6,93,0.00,n/a,n/a,-99.99,Henriksen +1-Wire,2013-04-11 12:40:00,
2013-04-11 08:46:00,44.8,42.9,29.90,NNW,333,1.4,3.6,93,0.00,n/a,n/a,-99.99,Henriksen +1-Wire,2013-04-11 12:46:00,
2013-04-11 08:52:00,44.9,43.0,29.90,WNW,289,1.4,5.5,93,0.01,n/a,n/a,-99.99,Henriksen +1-Wire,2013-04-11 12:52:00,
2013-04-11 08:58:00,44.7,42.8,29.91,NW,316,2.6,4.8,93,0.01,n/a,n/a,-99.99,Henriksen +1-Wire,2013-04-11 12:58:00,
2013-04-11 16:08:00,48.1,30.8,29.96,West,273,2.0,4.1,50,0.00,n/a,n/a,-99.99,Henriksen +1-Wire,2013-04-11 20:08:00,
2013-04-11 16:14:00,48.8,31.4,29.97,WNW,299,3.7,5.6,50,0.00,n/a,n/a,-99.99,Henriksen +1-Wire,2013-04-11 20:14:00,
2013-04-11 16:20:00,48.9,31.4,29.97,WNW,293,3.1,7.0,50,0.00,n/a,n/a,-99.99,Henriksen +1-Wire,2013-04-11 20:20:00,
2013-04-11 16:26:00,48.7,31.3,29.97,WNW,297,2.6,7.0,50,0.00,n/a,n/a,-99.99,Henriksen +1-Wire,2013-04-11 20:26:00,
2013-04-11 16:32:00,48.8,31.1,29.97,NW,312,1.3,5.5,50,0.00,n/a,n/a,-99.99,Henriksen +1-Wire,2013-04-11 20:32:00,
2013-04-11 16:38:00,48.8,31.0,29.98,NW,311,2.6,7.1,49,0.00,n/a,n/a,-99.99,Henriksen +1-Wire,2013-04-11 20:38:00,
2013-04-11 16:44:00,48.9,31.0,29.98,WNW,293,2.1,7.1,49,0.00,n/a,n/a,-99.99,Henriksen +1-Wire,2013-04-11 20:44:00,
2013-04-11 16:50:00,48.8,30.5,29.99,WNW,292,3.6,7.2,48,0.00,n/a,n/a,-99.99,Henriksen +1-Wire,2013-04-11 20:50:00,
2013-04-11 16:56:00,48.5,29.1,29.99,WNW,297,3.1,7.2,46,0.00,n/a,n/a,-99.99,Henriksen +1-Wire,2013-04-11 20:56:00,
2013-04-11 17:02:00,48.3,28.6,29.99,NW,312,4.0,8.4,46,0.00,n/a,n/a,-99.99,Henriksen +1-Wire,2013-04-11 21:02:00,
2013-04-11 17:08:00,48.2,27.2,29.99,NW,313,3.9,8.4,43,0.00,n/a,n/a,-99.99,Henriksen +1-Wire,2013-04-11 21:08:00,
2013-04-11 17:14:00,47.9,26.4,29.99,NW,305,4.2,9.6,42,0.00,n/a,n/a,-99.99,Henriksen +1-Wire,2013-04-11 21:14:00,
2013-04-11 17:20:00,47.8,26.4,29.99,WNW,292,1.6,9.6,43,0.00,n/a,n/a,-99.99,Henriksen +1-Wire,2013-04-11 21:20:00,
2013-04-11 17:26:00,47.6,25.9,29.99,WNW,301,3.8,5.8,42,0.00,n/a,n/a,-99.99,Henriksen +1-Wire,2013-04-11 21:26:00,
2013-04-11 17:32:00,47.4,25.8,29.99,NW,319,2.6,6.1,42,0.00,n/a,n/a,-99.99,Henriksen +1-Wire,2013-04-11 21:32:00,
2013-04-11 17:38:00,47.3,25.8,30.00,NW,309,4.4,6.4,42,0.00,n/a,n/a,-99.99,Henriksen +1-Wire,2013-04-11 21:38:00,
2013-04-11 17:44:00,47.1,25.3,30.00,WNW,296,4.5,7.5,42,0.00,n/a,n/a,-99.99,Henriksen +1-Wire,2013-04-11 21:44:00,
2013-04-11 17:50:00,47.0,26.1,30.01,NW,308,2.4,7.5,43,0.00,n/a,n/a,-99.99,Henriksen +1-Wire,2013-04-11 21:50:00,
2013-04-11 17:56:00,46.7,25.9,30.01,NW,312,3.3,8.1,43,0.00,n/a,n/a,-99.99,Henriksen +1-Wire,2013-04-11 21:56:00,
2013-04-11 18:02:00,46.5,26.0,30.01,WNW,297,3.6,9.6,44,0.00,n/a,n/a,-99.99,Henriksen +1-Wire,2013-04-11 22:02:00,
2013-04-11 18:08:00,46.3,26.2,30.01,WNW,291,2.0,6.1,45,0.00,n/a,n/a,-99.99,Henriksen +1-Wire,2013-04-11 22:08:00,
2013-04-11 18:13:00,46.2,25.8,30.01,NW,320,5.7,9.3,44,0.00,n/a,n/a,-99.99,Henriksen +1-Wire,2013-04-11 22:13:00,
2013-04-11 18:20:00,46.1,25.6,30.02,NW,310,2.8,9.3,44,0.00,n/a,n/a,-99.99,Henriksen +1-Wire,2013-04-11 22:20:00,
2013-04-11 18:26:00,46.0,26.6,30.03,WNW,297,4.7,8.7,46,0.00,n/a,n/a,-99.99,Henriksen +1-Wire,2013-04-11 22:26:00,
2013-04-11 18:32:00,45.8,25.7,30.02,WNW,299,3.9,6.7,44,0.00,n/a,n/a,-99.99,Henriksen +1-Wire,2013-04-11 22:32:00,
2013-04-11 18:38:00,45.6,25.3,30.03,NW,310,5.3,9.4,44,0.00,n/a,n/a,-99.99,Henriksen +1-Wire,2013-04-11 22:38:00,
2013-04-11 18:44:00,45.2,25.5,30.03,NW,313,4.3,9.9,45,0.00,n/a,n/a,-99.99,Henriksen +1-Wire,2013-04-11 22:44:00,
2013-04-11 18:50:00,44.9,25.9,30.03,NW,313,4.3,7.4,46,0.00,n/a,n/a,-99.99,Henriksen +1-Wire,2013-04-11 22:50:00,
2013-04-11 18:56:00,44.8,26.7,30.03,NW,315,3.1,7.1,48,0.00,n/a,n/a,-99.99,Henriksen +1-Wire,2013-04-11 22:56:00,
2013-04-11 19:02:00,44.6,25.7,30.04,WNW,298,2.4,7.7,47,0.00,n/a,n/a,-99.99,Henriksen +1-Wire,2013-04-11 23:02:00,
2013-04-11 19:08:00,44.4,26.1,30.04,NW,319,2.3,7.7,48,0.00,n/a,n/a,-99.99,Henriksen +1-Wire,2013-04-11 23:08:00,
2013-04-11 19:14:00,44.3,26.4,30.03,NW,310,2.1,4.4,49,0.00,n/a,n/a,-99.99,Henriksen +1-Wire,2013-04-11 23:14:00,
2013-04-11 19:20:00,44.0,26.0,30.03,NW,320,4.7,7.0,48,0.00,n/a,n/a,-99.99,Henriksen +1-Wire,2013-04-11 23:20:00,
2013-04-11 19:26:00,43.8,25.8,30.03,NW,325,3.7,7.4,48,0.00,n/a,n/a,-99.99,Henriksen +1-Wire,2013-04-11 23:26:00,
2013-04-11 19:32:00,43.6,25.3,30.04,NW,314,2.9,7.7,48,0.00,n/a,n/a,-99.99,Henriksen +1-Wire,2013-04-11 23:32:00,
2013-04-11 19:38:00,43.5,25.7,30.04,WNW,302,1.8,5.0,49,0.00,n/a,n/a,-99.99,Henriksen +1-Wire,2013-04-11 23:38:00,
2013-04-11 19:44:00,43.3,25.1,30.03,NW,319,3.3,5.9,48,0.00,n/a,n/a,-99.99,Henriksen +1-Wire,2013-04-11 23:44:00,
2013-04-11 19:50:00,43.3,24.4,30.04,NW,313,3.6,7.1,47,0.00,n/a,n/a,-99.99,Henriksen +1-Wire,2013-04-11 23:50:00,
2013-04-11 19:56:00,43.2,24.3,30.04,NW,319,2.0,7.1,46,0.00,n/a,n/a,-99.99,Henriksen +1-Wire,2013-04-11 23:56:00,
2013-04-11 20:02:00,43.1,24.8,30.04,WNW,292,1.8,4.9,48,0.00,n/a,n/a,-99.99,Henriksen +1-Wire,2013-04-12 00:02:00,
2013-04-11 20:08:00,43.1,25.3,30.04,WNW,303,2.4,5.5,49,0.00,n/a,n/a,-99.99,Henriksen +1-Wire,2013-04-12 00:08:00,
2013-04-11 20:14:00,43.0,25.0,30.04,NW,317,2.2,5.5,48,0.00,n/a,n/a,-99.99,Henriksen +1-Wire,2013-04-12 00:14:00,
2013-04-11 20:20:00,43.0,25.6,30.04,NW,307,2.6,3.9,49,0.00,n/a,n/a,-99.99,Henriksen +1-Wire,2013-04-12 00:20:00,
2013-04-11 20:26:00,42.8,25.4,30.04,WNW,301,2.1,5.2,49,0.00,n/a,n/a,-99.99,Henriksen +1-Wire,2013-04-12 00:26:00,
2013-04-11 20:32:00,42.8,25.8,30.04,WNW,303,3.1,6.5,50,0.00,n/a,n/a,-99.99,Henriksen +1-Wire,2013-04-12 00:32:00,
2013-04-11 20:38:00,42.7,26.0,30.05,NW,307,1.7,6.5,51,0.00,n/a,n/a,-99.99,Henriksen +1-Wire,2013-04-12 00:38:00,
2013-04-11 20:44:00,42.7,26.3,30.04,NW,310,1.7,4.2,52,0.00,n/a,n/a,-99.99,Henriksen +1-Wire,2013-04-12 00:44:00,
2013-04-11 20:50:00,42.6,26.6,30.05,WNW,294,1.7,3.8,52,0.00,n/a,n/a,-99.99,Henriksen +1-Wire,2013-04-12 00:50:00,
2013-04-11 20:56:00,42.6,26.9,30.05,WNW,300,1.7,3.8,53,0.00,n/a,n/a,-99.99,Henriksen +1-Wire,2013-04-12 00:56:00,
2013-04-11 21:02:00,42.6,27.2,30.05,West,273,0.8,3.4,54,0.00,n/a,n/a,-99.99,Henriksen +1-Wire,2013-04-12 01:02:00,
2013-04-11 21:08:00,42.6,27.2,30.06,NW,310,2.2,3.8,54,0.00,n/a,n/a,-99.99,Henriksen +1-Wire,2013-04-12 01:08:00,
2013-04-11 21:14:00,42.6,27.4,30.05,NW,314,1.9,5.0,54,0.00,n/a,n/a,-99.99,Henriksen +1-Wire,2013-04-12 01:14:00,
2013-04-11 21:20:00,42.6,27.6,30.05,NW,316,1.0,5.0,55,0.00,n/a,n/a,-99.99,Henriksen +1-Wire,2013-04-12 01:20:00,
2013-04-11 21:26:00,42.6,27.9,30.06,NW,319,1.7,3.2,55,0.00,n/a,n/a,-99.99,Henriksen +1-Wire,2013-04-12 01:26:00,
2013-04-11 21:32:00,42.5,28.5,30.07,NW,307,0.7,2.9,57,0.00,n/a,n/a,-99.99,Henriksen +1-Wire,2013-04-12 01:32:00,
2013-04-11 21:38:00,42.4,28.1,30.05,NW,312,2.1,2.9,56,0.00,n/a,n/a,-99.99,Henriksen +1-Wire,2013-04-12 01:38:00,
2013-04-11 21:44:00,42.4,28.2,30.07,WNW,297,1.3,2.9,56,0.00,n/a,n/a,-99.99,Henriksen +1-Wire,2013-04-12 01:44:00,
2013-04-11 21:50:00,42.5,29.2,30.07,WSW,252,1.3,2.5,59,0.00,n/a,n/a,-99.99,Henriksen +1-Wire,2013-04-12 01:50:00,
2013-04-11 21:56:00,42.6,29.7,30.08,SSW,207,1.3,1.9,59,0.00,n/a,n/a,-99.99,Henriksen +1-Wire,2013-04-12 01:56:00,
2013-04-11 22:02:00,42.5,29.6,30.08,SSW,200,0.4,2.2,60,0.00,n/a,n/a,-99.99,Henriksen +1-Wire,2013-04-12 02:02:00,
2013-04-11 22:08:00,42.5,29.3,30.07,SSE,160,1.1,2.0,59,0.00,n/a,n/a,-99.99,Henriksen +1-Wire,2013-04-12 02:08:00,
2013-04-11 22:14:00,42.4,29.5,30.08,ENE,64,1.2,1.9,59,0.00,n/a,n/a,-99.99,Henriksen +1-Wire,2013-04-12 02:14:00,
2013-04-11 22:20:00,42.1,28.9,30.08,WNW,287,1.5,2.3,59,0.00,n/a,n/a,-99.99,Henriksen +1-Wire,2013-04-12 02:20:00,
2013-04-11 22:26:00,42.1,29.4,30.09,West,261,0.4,2.3,60,0.00,n/a,n/a,-99.99,Henriksen +1-Wire,2013-04-12 02:26:00,
2013-04-11 22:32:00,42.1,29.8,30.08,WNW,282,0.7,1.6,61,0.00,n/a,n/a,-99.99,Henriksen +1-Wire,2013-04-12 02:32:00,
2013-04-11 22:38:00,42.1,30.1,30.09,WSW,255,0.5,1.9,62,0.00,n/a,n/a,-99.99,Henriksen +1-Wire,2013-04-12 02:38:00,
2013-04-11 22:44:00,41.8,30.6,30.10,WSW,258,1.1,2.3,64,0.00,n/a,n/a,-99.99,Henriksen +1-Wire,2013-04-12 02:44:00,
2013-04-11 22:50:00,41.7,30.2,30.09,West,273,0.3,2.6,63,0.00,n/a,n/a,-99.99,Henriksen +1-Wire,2013-04-12 02:50:00,
2013-04-11 22:56:00,41.7,29.7,30.09,WNW,290,0.8,2.3,62,0.00,n/a,n/a,-99.99,Henriksen +1-Wire,2013-04-12 02:56:00,
2013-04-11 23:02:00,41.6,29.2,30.09,NNW,340,0.4,1.9,61,0.00,n/a,n/a,-99.99,Henriksen +1-Wire,2013-04-12 03:02:00,
2013-04-11 23:08:00,41.6,29.3,30.08,NW,308,0.7,1.3,61,0.00,n/a,n/a,-99.99,Henriksen +1-Wire,2013-04-12 03:08:00,
2013-04-11 23:14:00,41.6,29.3,30.08,NNW,330,0.3,1.6,61,0.00,n/a,n/a,-99.99,Henriksen +1-Wire,2013-04-12 03:14:00,
2013-04-11 23:20:00,41.6,29.4,30.08,NNW,334,0.5,1.6,61,0.00,n/a,n/a,-99.99,Henriksen +1-Wire,2013-04-12 03:20:00,
2013-04-11 23:26:00,41.5,29.8,30.08,NW,315,1.1,1.9,62,0.00,n/a,n/a,-99.99,Henriksen +1-Wire,2013-04-12 03:26:00,
2013-04-11 23:32:00,41.5,30.2,30.08,NW,321,1.3,2.8,63,0.00,n/a,n/a,-99.99,Henriksen +1-Wire,2013-04-12 03:32:00,
2013-04-11 23:38:00,41.6,30.3,30.09,NNW,344,1.2,2.8,64,0.00,n/a,n/a,-99.99,Henriksen +1-Wire,2013-04-12 03:38:00,
2013-04-11 23:44:00,41.6,29.9,30.09,NNW,333,1.8,3.7,62,0.00,n/a,n/a,-99.99,Henriksen +1-Wire,2013-04-12 03:44:00,
2013-04-11 23:50:00,41.6,29.9,30.09,NNW,332,2.5,3.5,62,0.00,n/a,n/a,-99.99,Henriksen +1-Wire,2013-04-12 03:50:00,
2013-04-11 23:56:00,41.6,30.1,30.09,NNW,340,1.3,3.5,63,0.00,n/a,n/a,-99.99,Henriksen +1-Wire,2013-04-12 03:56:00,